Погода в Курунде

Россия / Республика Алтай     50°19′20″N   85°45′55″E
темп.,
°C
ветер,
м/с
пор.,
м/с
влажн.,
%
обл.,
%
осадки,
мм/ч
давл.,
гПа
погр.,
м
18 мая, ср
ср1801:00+10ю01634 0.0 101412
04:00+9юз11693 0.0 101511
07:00+10юв01662 0.0 101661
10:00+16юв11465 0.0 1014583
13:00+21ююз113112 0.0 10121761
16:00+22зсз12245 0.0 10112165
19:00+21з012762 0.0 10101754
22:00+15с114981 0.0 101218
19 мая, чт
чт1901:00+12ююв01554 0.0 101312
04:00+10в01595 0.0 101312
07:00+12в11585 0.0 101445
10:00+19юз1239100 0.0 1013848
13:00+22юз462798 0.0 10113076
16:00+21зюз673353 0.0 10112539
19:00+15з2457100 0.4 1015912
22:00+12с1176100 0.8 101737
20 мая, пт
пт2001:00+10з0183100 1.2 101711
04:00+9в01865 0.1 101714
07:00+10зюз01825 0.2 1018101
10:00+16юз12547 0.3 1017729
13:00+20зсз253381 0.5 10142724
16:00+20з45317 0.1 10142476
19:00+18зсз34382 0.1 10151573
22:00+12сз12554 0.0 101717
21 мая, сб
сб2101:00+10с11585 0.0 101812
04:00+8с01671 0.0 101711
07:00+9ююв01655 0.0 101778
10:00+16вюв12480 0.0 1014577
13:00+21ю12320 0.0 10111054
16:00+24сз12240 0.0 10081527
19:00+23ссз11281 0.0 1007544
22:00+15сз11435 0.0 100915
22 мая, вс
вс2201:00+13ю0147100 0.0 100811
04:00+12св0151100 0.0 100812
07:00+13ссз2258100 0.1 100952
10:00+13вюв2367100 0.2 1010137
13:00+17юв1353100 0.3 10091288
16:00+12в2280100 0.8 1010226
19:00+15в0166100 0.8 1008336
22:00+10ссв01840 0.0 100911